Probability
45 42 39 42 32 0 0 0 0 0 0 0 0 0 0 0 0 3 6 6 6 6 16 26 52 58 55 58 61 58 52 55 61 55 55 65 55 52 61 65 61 55 55 61 61 68 65 65 65
48 52 55 39 10 0 0 0 0 0 0 3 0 0 0 0 3 3 10 6 3 10 19 29 55 58 52 58 55 61 58 61 61 65 65 65 58 55 55 52 58 55 55 55 61 61 58 52 65
42 52 55 19 0 0 0 0 0 0 0 0 0 0 0 0 0 3 10 10 6 13 19 45 58 61 58 61 55 58 65 65 58 65 68 68 58 55 61 48 52 58 61 58 52 55 48 52 52
45 55 29 13 0 0 0 0 0 0 0 0 0 0 0 6 0 6 6 6 10 13 23 35 61 71 74 61 58 55 58 58 65 71 71 65 65 65 61 58 48 52 52 52 48 45 45 45 48
48 32 13 0 0 0 0 0 0 0 0 0 0 0 16 13 13 6 6 6 10 13 19 32 58 68 77 68 65 71 71 58 71 61 65 61 58 55 58 55 58 55 48 45 42 45 42 45 35
32 23 3 0 0 0 0 0 0 0 0 0 0 0 19 16 10 10 10 10 6 6 13 29 68 74 74 74 65 71 77 71 65 65 61 61 68 68 61 48 52 48 52 45 42 42 45 32 29
19 3 0 0 0 0 0 0 0 0 0 0 0 0 19 19 16 19 16 16 10 10 13 32 32 55 68 68 74 71 74 71 68 65 65 65 65 52 48 52 45 42 35 32 32 39 42 32 35
10 3 0 0 0 0 0 0 0 0 0 3 0 0 16 23 16 19 19 16 19 19 19 32 29 48 55 65 81 74 71 77 68 65 65 65 58 55 55 48 42 39 39 32 29 35 32 39 42
6 3 0 0 0 0 0 0 0 0 3 3 0 0 13 16 16 16 16 19 23 23 23 19 26 42 45 45 61 71 71 74 68 65 55 55 55 48 42 35 35 35 32 35 35 32 26 29 26
6 0 0 0 0 0 0 0 3 3 3 6 6 13 13 16 19 10 16 19 19 26 19 29 19 26 29 32 58 68 58 68 74 71 61 65 68 61 35 39 35 32 35 48 42 32 19 16 23
0 0 0 0 0 0 0 0 0 0 0 0 3 13 16 16 19 6 6 16 19 29 26 26 19 29 39 48 58 55 52 68 58 61 52 71 48 45 32 42 48 61 45 35 42 26 23 16 26
0 0 0 0 0 0 0 0 0 0 0 0 3 13 13 13 10 10 13 13 23 29 26 29 29 42 58 48 52 52 55 52 45 65 55 42 48 48 39 58 48 58 55 52 32 39 23 26 26
0 0 0 0 0 0 0 0 0 6 3 3 10 10 10 10 10 10 16 16 26 32 29 35 48 71 77 81 68 52 58 45 45 52 55 45 48 29 29 52 42 32 35 45 45 32 26 26 23
0 0 0 0 3 3 3 0 0 3 6 10 10 6 6 10 10 13 19 32 32 39 39 48 58 74 81 84 84 71 52 74 42 45 42 39 48 48 45 42 58 32 35 32 42 32 42 45 42
0 0 0 0 3 3 3 3 3 6 10 13 10 10 13 16 16 19 26 42 39 45 55 61 65 74 74 74 61 61 55 45 55 45 55 61 58 65 55 45 52 39 45 55 52 39 32 52 39
0 0 0 3 3 3 3 3 6 6 10 10 13 16 16 26 19 19 29 39 45 55 74 84 48 61 87 84 77 55 55 55 58 61 61 61 58 58 81 55 45 55 48 55 61 45 45 42 48
0 0 0 0 3 3 3 3 6 6 10 6 13 16 19 23 23 26 29 42 52 68 84 81 74 74 84 87 84 81 84 77 68 68 65 61 55 55 55 68 71 55 61 61 55 52 48 58 58
0 0 0 0 0 3 3 0 3 10 6 13 13 19 23 23 26 29 42 48 55 74 87 87 87 90 90 87 90 81 81 74 71 71 77 68 68 58 58 65 68 58 71 68 74 71 74 74 74
0 0 0 0 0 0 0 0 6 10 16 13 26 29 29 23 23 29 39 45 58 77 87 90 87 90 94 87 77 81 81 74 71 65 71 74 71 68 77 65 74 65 68 68 58 68 65 55 68
0 0 0 0 0 0 0 3 3 13 23 26 29 45 45 39 35 42 48 58 55 87 87 90 90 90 90 94 90 90 81 71 71 68 87 71 81 77 68 68 74 74 90 77 77 77 61 45 52
0 0 0 0 0 0 0 3 6 19 19 23 23 32 35 39 52 52 55 58 58 74 87 81 90 90 90 90 84 81 84 77 77 81 81 81 90 81 77 81 74 77 71 71 84 81 71 61 55
0 0 0 0 0 0 0 0 6 16 16 26 26 26 39 35 48 55 58 61 65 74 81 87 90 90 90 90 81 81 84 84 81 84 87 84 90 84 84 84 84 77 81 90 71 55 65 77 68
0 0 0 0 0 0 0 0 0 10 16 23 32 29 39 45 45 52 58 68 61 71 77 87 90 90 90 90 90 90 87 90 84 87 84 87 90 84 84 84 87 90 84 87 87 81 84 71 65
0 0 0 0 0 0 0 0 0 10 6 16 23 29 32 48 48 55 52 68 77 74 81 84 90 94 94 90 87 94 90 90 90 90 90 90 87 87 84 84 87 84 84 81 84 77 74 74 74
0 0 0 0 0 0 3 0 0 10 13 13 16 26 42 39 52 58 58 61 74 84 81 84 90 90 90 90 90 94 94 94 94 94 90 90 87 87 84 77 87 84 81 77 74 81 81 77 84
0 0 0 0 0 0 0 0 6 10 13 16 26 23 26 32 48 65 61 65 71 84 84 81 87 87 90 94 90 94 94 90 94 90 87 84 84 84 87 81 74 65 68 68 71 71 77 77 84
0 0 0 0 0 0 0 0 6 13 13 29 35 32 26 42 39 48 68 68 71 71 77 77 77 84 84 87 90 94 90 87 87 87 87 81 84 81 77 77 77 71 65 68 77 77 77 74 81
0 0 0 0 0 0 0 0 6 26 29 35 39 39 32 39 39 45 58 71 71 71 77 77 81 84 84 87 90 84 87 87 84 84 84 84 81 77 74 74 68 71 71 68 71 71 74 71 68
0 0 0 0 0 0 0 0 6 29 35 45 42 42 45 42 39 52 58 68 71 71 77 84 81 81 81 87 90 84 84 81 81 81 81 81 81 81 71 77 74 77 74 68 74 65 71 65 65
0 0 0 0 0 0 0 0 16 26 32 42 35 45 45 42 48 48 61 68 74 74 77 81 84 84 84 84 84 90 90 84 81 81 81 84 81 77 74 74 71 74 74 68 71 68 68 71 65
Height
5893 5891 5890 5889 5888 5888 5886 5884 5881 5879 5877 5876 5874 5872 5871 5870 5869 5870 5866 5864 5863 5862 5861 5861 5861 5860 5861 5861 5862 5863 5865 5866 5867 5868 5869 5870 5871 5872 5874 5875 5877 5879 5880 5882 5883 5885 5887 5889 5890
5896 5894 5893 5892 5892 5892 5889 5886 5884 5881 5879 5877 5875 5874 5872 5871 5869 5868 5866 5865 5864 5863 5862 5862 5862 5862 5862 5862 5862 5863 5865 5866 5868 5869 5870 5871 5872 5874 5875 5876 5878 5879 5881 5883 5884 5886 5888 5889 5890
5898 5897 5896 5895 5895 5893 5891 5889 5886 5883 5881 5879 5877 5876 5874 5872 5870 5869 5867 5866 5865 5864 5864 5863 5863 5863 5863 5863 5863 5863 5865 5867 5869 5870 5871 5873 5874 5875 5876 5877 5879 5881 5882 5884 5885 5887 5888 5889 5891
5901 5900 5899 5900 5898 5896 5893 5891 5888 5886 5884 5881 5879 5877 5875 5873 5872 5870 5868 5867 5867 5866 5865 5865 5865 5865 5864 5864 5864 5864 5866 5868 5870 5871 5872 5874 5875 5876 5877 5878 5880 5881 5883 5884 5886 5887 5889 5890 5891
5904 5903 5904 5903 5901 5898 5896 5893 5891 5888 5886 5884 5882 5879 5877 5875 5873 5872 5870 5869 5868 5868 5867 5867 5866 5866 5866 5866 5866 5867 5868 5869 5871 5872 5873 5875 5876 5877 5878 5879 5880 5882 5883 5885 5886 5888 5889 5890 5891
5907 5906 5909 5906 5904 5901 5898 5896 5893 5891 5889 5886 5884 5882 5879 5877 5876 5874 5872 5871 5870 5869 5869 5869 5868 5868 5867 5868 5868 5868 5870 5871 5872 5873 5875 5876 5877 5878 5879 5880 5881 5882 5884 5885 5887 5888 5889 5891 5892
5910 5910 5910 5908 5906 5904 5901 5898 5896 5893 5891 5889 5887 5884 5882 5879 5878 5876 5874 5873 5872 5871 5871 5870 5870 5870 5869 5870 5870 5871 5871 5872 5873 5875 5876 5877 5878 5879 5880 5881 5882 5883 5885 5886 5887 5889 5890 5891 5892
5912 5913 5912 5911 5909 5906 5904 5901 5898 5896 5894 5892 5889 5887 5885 5882 5880 5878 5877 5875 5874 5874 5873 5872 5872 5872 5872 5872 5872 5873 5873 5874 5875 5876 5877 5878 5879 5880 5881 5881 5882 5884 5885 5887 5888 5889 5890 5891 5893
5915 5917 5916 5913 5911 5908 5906 5903 5901 5898 5896 5894 5892 5890 5887 5885 5883 5881 5879 5878 5877 5876 5875 5874 5874 5873 5874 5874 5874 5874 5875 5875 5876 5877 5878 5879 5880 5880 5881 5882 5883 5884 5886 5887 5889 5890 5891 5892 5893
5917 5918 5917 5915 5912 5910 5908 5905 5903 5901 5899 5896 5894 5892 5890 5887 5885 5883 5882 5881 5879 5878 5877 5876 5876 5875 5875 5875 5875 5876 5876 5876 5877 5878 5879 5880 5880 5881 5882 5882 5884 5885 5886 5887 5889 5890 5891 5892 5893
5918 5918 5917 5915 5914 5912 5910 5908 5905 5903 5901 5899 5897 5895 5893 5890 5888 5886 5885 5883 5882 5881 5879 5878 5878 5877 5877 5877 5877 5877 5878 5878 5879 5879 5880 5881 5881 5882 5882 5884 5885 5886 5887 5888 5889 5890 5891 5892 5893
5919 5919 5918 5916 5915 5913 5912 5910 5908 5906 5904 5902 5900 5898 5895 5893 5891 5889 5888 5886 5884 5883 5882 5880 5880 5879 5879 5878 5878 5879 5879 5879 5880 5880 5881 5882 5882 5883 5884 5885 5886 5886 5888 5888 5889 5890 5891 5892 5893
5919 5919 5918 5917 5916 5915 5913 5911 5910 5908 5906 5904 5902 5900 5898 5896 5894 5892 5890 5888 5886 5885 5884 5882 5882 5881 5881 5880 5880 5880 5880 5881 5881 5882 5882 5882 5883 5884 5885 5886 5886 5887 5888 5889 5890 5891 5892 5892 5893
5919 5919 5918 5918 5917 5916 5914 5913 5912 5910 5908 5906 5904 5902 5900 5898 5896 5894 5892 5890 5888 5887 5886 5884 5884 5883 5882 5882 5882 5882 5882 5882 5882 5883 5883 5883 5884 5885 5886 5886 5887 5888 5889 5889 5890 5891 5892 5892 5893
5918 5919 5918 5918 5917 5916 5916 5915 5913 5911 5909 5907 5906 5904 5902 5900 5898 5896 5894 5892 5891 5889 5888 5887 5886 5885 5884 5884 5884 5883 5883 5883 5884 5884 5884 5884 5885 5885 5886 5887 5887 5888 5889 5890 5890 5891 5892 5892 5893
5917 5918 5919 5918 5917 5917 5918 5917 5915 5913 5911 5909 5907 5906 5904 5902 5900 5898 5897 5895 5893 5891 5889 5888 5887 5886 5885 5885 5885 5885 5885 5884 5884 5885 5885 5885 5885 5886 5886 5886 5887 5888 5888 5889 5890 5891 5891 5892 5893
5916 5918 5918 5917 5917 5916 5917 5917 5916 5913 5912 5910 5908 5907 5905 5904 5902 5900 5899 5897 5895 5893 5892 5890 5889 5888 5887 5886 5886 5886 5885 5885 5885 5885 5885 5885 5885 5886 5886 5887 5887 5887 5888 5888 5889 5890 5890 5891 5891
5915 5916 5916 5916 5915 5915 5915 5916 5915 5913 5912 5911 5909 5908 5906 5905 5903 5902 5900 5899 5897 5895 5893 5892 5891 5890 5888 5888 5887 5887 5886 5886 5886 5886 5886 5886 5886 5886 5886 5886 5887 5887 5887 5887 5888 5889 5889 5889 5890
5910 5912 5913 5914 5913 5914 5914 5914 5914 5913 5912 5911 5909 5908 5907 5906 5904 5903 5901 5900 5898 5897 5895 5893 5892 5891 5890 5889 5888 5887 5887 5886 5886 5886 5886 5886 5886 5886 5886 5886 5886 5886 5887 5887 5887 5887 5888 5888 5888
5906 5909 5910 5911 5910 5911 5912 5912 5912 5911 5911 5910 5909 5908 5907 5906 5905 5903 5902 5900 5899 5898 5896 5894 5893 5892 5891 5890 5889 5888 5887 5887 5887 5887 5886 5886 5886 5886 5886 5885 5885 5886 5886 5885 5885 5886 5886 5886 5887
5902 5905 5907 5907 5907 5908 5909 5910 5910 5910 5909 5909 5908 5907 5907 5906 5905 5903 5902 5901 5899 5898 5897 5895 5894 5893 5892 5891 5890 5889 5888 5888 5887 5887 5887 5886 5886 5886 5885 5885 5885 5885 5885 5884 5884 5884 5885 5885 5885
5899 5901 5902 5903 5904 5906 5907 5908 5908 5907 5907 5907 5906 5906 5905 5905 5904 5903 5902 5900 5899 5898 5897 5895 5894 5893 5892 5891 5890 5889 5889 5888 5888 5887 5886 5886 5885 5885 5885 5885 5884 5884 5884 5883 5883 5883 5883 5883 5883
5894 5896 5897 5899 5900 5902 5903 5904 5907 5905 5904 5904 5904 5903 5903 5903 5902 5901 5900 5899 5898 5897 5896 5895 5894 5893 5891 5890 5890 5889 5889 5888 5887 5887 5886 5886 5885 5884 5884 5884 5883 5883 5883 5882 5882 5882 5881 5881 5881
5888 5891 5893 5894 5897 5898 5899 5901 5902 5902 5901 5901 5901 5901 5900 5900 5900 5899 5898 5898 5897 5896 5895 5894 5893 5892 5891 5890 5889 5888 5888 5888 5887 5886 5885 5885 5884 5884 5883 5882 5882 5882 5881 5881 5880 5880 5880 5879 5879
5884 5887 5890 5892 5893 5895 5895 5895 5898 5897 5897 5897 5897 5897 5897 5897 5896 5896 5896 5896 5895 5894 5893 5892 5891 5890 5889 5888 5888 5887 5887 5886 5885 5885 5884 5883 5883 5882 5882 5881 5880 5880 5879 5879 5879 5878 5878 5877 5877
5879 5883 5886 5889 5890 5891 5889 5890 5893 5892 5892 5893 5893 5893 5893 5893 5892 5892 5892 5892 5892 5891 5890 5890 5889 5888 5887 5887 5886 5885 5885 5884 5883 5883 5882 5882 5881 5881 5880 5879 5879 5878 5877 5877 5876 5875 5875 5874 5874
5873 5876 5881 5883 5883 5884 5885 5885 5886 5886 5888 5888 5888 5889 5889 5889 5888 5888 5888 5888 5888 5888 5888 5887 5886 5885 5885 5884 5883 5883 5882 5881 5881 5880 5880 5879 5879 5878 5878 5877 5876 5875 5875 5874 5873 5873 5872 5871 5871
5867 5870 5873 5876 5877 5879 5881 5881 5882 5881 5882 5883 5883 5884 5884 5884 5884 5884 5883 5884 5884 5884 5884 5883 5883 5881 5881 5881 5880 5879 5879 5878 5877 5877 5876 5876 5875 5874 5874 5874 5873 5873 5872 5871 5870 5870 5869 5868 5867
5861 5863 5865 5868 5871 5873 5876 5878 5875 5875 5876 5877 5878 5878 5879 5879 5879 5879 5879 5879 5879 5879 5879 5879 5879 5878 5877 5876 5876 5875 5875 5874 5873 5872 5872 5871 5871 5870 5870 5870 5870 5869 5868 5867 5867 5866 5865 5865 5864
5853 5856 5858 5862 5863 5865 5868 5873 5868 5869 5870 5871 5872 5873 5873 5873 5873 5873 5873 5874 5874 5874 5874 5874 5874 5873 5872 5871 5871 5870 5870 5870 5869 5868 5867 5866 5866 5866 5866 5866 5865 5864 5864 5863 5862 5861 5861 5860 5860
Wind_Speed
21 21 21 21 23 21 18 18 17 17 16 15 15 14 13 12 10 8 7 6 5 5 5 4 5 6 8 9 10 11 12 12 12 13 14 14 14 14 13 13 13 13 13 13 13 13 12 11 10
21 21 21 23 23 19 19 18 18 18 17 16 16 15 14 13 12 10 8 7 7 6 5 5 5 6 7 8 10 11 11 12 12 13 13 14 13 13 12 12 13 13 13 13 12 12 12 11 10
21 21 22 24 21 19 19 19 19 19 18 17 17 17 16 15 14 12 10 8 8 7 6 6 6 7 7 8 9 10 12 13 12 13 14 13 13 13 12 12 13 14 13 12 11 11 10 11 10
20 21 24 23 21 20 20 19 19 20 19 18 18 18 17 16 15 14 12 10 9 8 8 7 7 7 8 9 10 10 12 12 13 13 12 12 13 13 12 12 13 13 13 12 11 10 9 9 9
19 22 23 21 21 21 21 19 19 20 20 19 19 19 18 17 16 15 13 11 10 9 8 8 8 8 9 10 10 10 10 11 12 12 12 12 12 12 12 11 12 12 12 12 11 10 9 8 9
19 21 20 19 20 21 21 20 20 20 20 20 20 20 19 17 16 15 14 12 10 10 9 8 8 8 9 10 10 10 11 12 12 12 11 11 10 11 11 11 11 11 12 11 11 10 9 9 8
19 20 19 19 20 20 20 21 21 21 21 21 20 20 19 18 16 15 14 12 11 10 9 8 8 9 9 10 10 10 11 11 11 11 11 10 10 9 10 10 10 10 10 10 9 9 9 9 8
16 18 18 18 19 19 19 20 21 21 21 21 20 20 20 18 17 15 14 13 12 10 9 9 9 8 9 9 9 9 10 11 11 10 10 9 9 9 8 8 9 9 10 9 9 8 8 8 8
13 15 14 16 17 18 18 19 20 20 20 21 21 21 20 18 17 16 15 14 12 11 10 9 9 8 9 9 9 9 9 10 10 10 9 9 9 8 8 8 9 8 9 8 8 8 8 7 7
11 12 12 14 15 16 17 18 19 20 20 20 21 21 21 19 18 16 15 14 12 11 10 10 9 9 9 8 8 8 8 9 9 9 9 9 9 8 7 8 8 9 9 8 8 8 8 7 7
8 9 10 12 13 15 16 17 18 20 20 19 19 19 20 20 19 17 16 14 13 11 10 10 9 9 9 8 8 8 8 8 8 7 7 8 8 8 9 8 8 8 8 8 7 7 8 8 7
5 7 7 9 10 12 14 15 17 18 18 18 18 18 19 19 18 17 15 15 13 12 10 10 9 8 8 8 8 8 7 7 6 6 6 6 7 8 7 7 7 7 7 8 7 7 7 7 7
2 3 5 6 8 10 11 12 14 16 16 16 17 17 17 17 18 17 15 14 13 11 10 10 9 8 8 7 7 7 7 6 6 6 6 6 6 5 5 5 5 6 7 7 6 6 6 6 7
2 1 2 3 5 6 9 10 11 13 14 14 15 15 15 17 17 17 16 14 13 11 10 9 8 8 8 7 7 7 6 5 5 5 5 5 5 5 5 5 5 5 5 5 5 6 5 6 6
4 3 2 1 2 4 6 8 10 11 12 13 13 13 14 15 15 16 15 15 14 12 10 9 8 7 7 7 6 6 5 5 5 5 5 5 5 5 5 5 5 5 5 4 4 5 5 5 6
6 5 4 4 2 1 4 6 7 9 10 11 12 12 12 13 13 14 14 14 13 12 10 9 8 7 7 6 6 5 5 4 4 5 5 4 4 4 4 4 4 4 5 5 5 5 5 5 6
9 8 7 7 4 2 1 3 5 7 8 9 11 11 11 12 12 12 12 13 12 12 11 9 9 8 7 6 5 5 4 4 3 4 4 4 4 3 3 3 3 4 5 6 6 6 6 6 6
12 10 10 9 7 5 3 3 4 5 6 7 8 9 9 10 10 10 11 12 12 11 11 9 9 8 6 5 5 4 4 4 4 3 3 3 2 2 1 2 2 3 4 5 6 7 7 7 7
15 13 12 12 10 8 6 5 5 6 6 6 6 7 8 8 9 9 9 10 10 10 10 9 9 8 7 6 4 4 3 4 4 3 2 2 1 1 1 1 2 2 3 5 6 6 7 7 8
16 15 14 14 13 11 9 8 7 7 6 6 6 6 6 7 8 8 8 8 9 9 9 9 8 7 6 6 5 3 3 2 2 2 1 1 0 0 1 1 2 3 3 5 6 7 8 8 8
17 16 16 16 15 13 12 10 9 8 7 6 6 7 6 6 6 6 6 7 7 8 7 7 7 7 6 5 5 4 3 2 1 1 0 1 1 1 2 2 2 3 3 3 5 5 7 8 8
19 18 18 17 16 15 14 12 11 10 9 8 8 8 7 7 7 7 6 7 7 7 7 6 7 7 6 5 4 4 3 2 2 2 2 2 2 3 3 2 3 3 4 4 4 5 6 7 8
22 21 19 18 17 17 16 14 11 12 11 10 10 10 9 9 8 8 7 7 7 7 7 7 7 7 6 5 4 4 3 3 3 3 3 3 3 4 4 4 4 5 5 5 5 5 6 8 8
23 23 22 20 18 19 17 16 14 13 12 11 12 12 11 11 10 10 9 9 9 8 8 8 8 8 8 7 6 5 5 5 5 4 4 5 5 5 5 5 6 6 6 6 7 7 7 8 8
25 23 20 19 19 18 18 17 15 14 13 12 13 14 14 14 14 13 12 11 11 11 10 10 10 9 8 7 8 8 7 7 7 7 7 7 7 7 7 7 7 8 9 9 9 9 9 9 10
25 24 22 20 19 18 20 19 16 15 14 14 14 15 16 16 16 15 14 14 13 13 13 13 12 11 10 9 10 10 9 10 9 10 10 9 9 9 9 9 9 10 10 10 10 10 11 11 11
26 26 24 23 22 20 20 20 19 17 15 15 16 17 16 17 17 17 17 16 15 15 15 15 14 13 12 12 12 12 12 12 12 12 12 12 12 12 11 11 11 11 11 11 11 11 12 12 12
29 27 26 25 23 23 21 20 19 18 17 17 17 18 17 17 18 19 19 18 17 17 16 16 16 14 14 14 15 14 15 15 14 14 15 15 15 14 14 14 14 14 13 13 13 13 13 13 13
29 29 29 27 26 24 22 21 21 21 19 18 18 18 18 18 19 19 18 18 18 19 19 19 19 19 19 17 17 18 17 17 17 17 17 17 17 17 17 17 17 16 16 16 15 15 15 15 15
29 29 29 28 29 27 25 24 24 23 22 20 19 19 19 19 19 20 20 21 21 20 20 20 20 21 22 21 20 20 20 20 21 21 20 20 19 18 19 20 19 19 19 19 18 18 17 17 17
Wind_Direction
62 61 61 61 61 56 58 60 62 64 62 62 61 58 57 56 56 56 54 54 65 79 84 98 119 130 137 141 141 142 145 147 149 146 144 145 143 142 143 147 146 146 143 140 142 143 145 145 146
63 61 61 61 62 58 57 59 60 61 61 61 60 56 54 53 53 55 57 55 63 74 81 92 109 122 128 137 141 144 145 145 145 145 145 143 142 142 143 147 147 144 142 144 147 147 146 143 144
63 63 62 62 60 60 59 59 60 61 61 61 59 55 53 52 52 54 59 63 66 72 81 91 102 115 117 124 131 141 147 146 146 146 146 144 143 142 143 146 149 148 148 152 152 149 149 148 147
64 64 62 60 58 59 58 58 59 61 59 58 58 55 53 52 52 54 59 65 67 72 82 93 103 112 112 117 121 132 139 143 147 146 146 146 145 145 144 146 150 150 151 154 157 154 154 155 154
62 62 60 58 58 59 58 57 58 60 58 56 56 54 52 52 52 53 57 63 65 70 77 87 103 110 115 118 123 128 133 138 141 141 142 144 146 145 144 146 149 151 152 155 155 155 156 155 155
63 63 64 60 58 59 58 57 56 57 56 54 53 53 52 51 51 53 57 63 67 71 76 89 96 104 115 119 122 126 130 135 139 140 140 145 149 150 149 149 152 154 155 160 159 156 159 157 157
70 70 65 61 59 58 57 57 56 56 55 52 51 51 49 50 51 52 55 60 68 72 78 87 92 101 111 117 121 126 130 132 136 138 139 143 148 151 155 157 157 158 161 163 161 158 163 162 165
74 70 61 58 58 57 57 57 56 55 54 52 51 49 48 49 52 53 54 58 65 70 76 81 88 100 113 119 123 127 131 134 137 141 141 143 148 153 155 160 164 162 163 165 164 166 167 167 165
70 68 62 58 57 57 57 56 56 55 53 52 50 49 48 49 51 53 55 57 61 68 74 79 85 96 106 116 124 130 136 136 137 142 143 144 145 147 156 161 166 166 168 167 169 170 168 170 168
68 72 67 62 60 59 57 56 55 54 53 50 49 48 49 49 50 52 55 56 57 63 70 76 83 95 104 112 121 128 135 138 137 140 143 143 145 147 152 158 164 171 173 172 174 174 174 174 173
65 72 70 65 63 59 57 57 54 52 51 49 48 47 48 49 49 50 53 55 58 63 67 75 84 95 105 113 121 129 133 136 136 139 146 149 152 154 155 158 160 163 170 171 172 174 178 179 178
68 68 68 65 62 59 57 57 54 52 49 49 47 46 46 47 47 47 49 50 57 64 67 75 82 89 101 112 120 128 130 129 132 137 140 152 154 152 150 154 163 166 168 167 172 176 175 178 178
63 74 70 62 56 54 53 54 53 50 48 47 47 45 44 45 46 46 46 48 53 60 64 70 79 87 93 102 113 121 123 126 133 135 138 145 151 154 148 152 157 163 164 164 166 171 172 176 181
235 165 78 51 51 49 48 50 47 46 45 46 44 42 42 42 44 45 46 46 49 54 59 67 72 80 85 93 101 110 119 118 126 130 134 145 154 155 159 162 159 162 165 173 177 180 177 177 184
240 242 276 348 49 47 43 42 41 41 43 44 41 38 39 40 42 45 46 45 46 49 54 59 65 73 81 90 97 104 113 119 127 131 130 139 146 156 164 170 174 178 186 191 188 193 195 195 199
247 252 274 281 275 43 38 27 25 29 35 36 34 33 35 38 41 43 45 44 43 45 49 52 57 60 69 80 90 96 104 113 123 139 140 137 137 155 165 175 185 195 206 207 205 212 218 214 215
252 247 254 268 265 269 332 1 1 8 18 25 26 25 28 32 38 40 41 42 41 42 45 49 50 51 60 67 72 80 94 102 107 132 144 140 140 153 170 183 194 209 214 213 214 217 224 225 226
243 245 251 259 262 263 276 302 324 340 358 7 17 21 23 27 33 35 36 38 38 37 39 42 41 42 48 53 58 65 72 86 104 119 131 132 139 162 198 217 218 226 228 224 225 227 231 236 238
239 245 251 256 259 262 266 277 296 316 328 340 356 9 13 16 22 25 29 32 33 30 29 32 36 38 41 42 50 54 61 80 101 101 115 118 113 115 169 235 236 244 250 241 240 241 243 243 245
244 247 250 256 259 261 265 275 282 298 307 318 334 346 356 359 4 8 13 17 20 21 22 24 26 28 31 34 33 42 55 69 73 81 92 95 58 48 4 292 267 270 270 256 250 252 251 253 250
245 246 247 252 261 262 264 273 276 284 285 294 305 315 324 337 342 343 350 356 3 9 12 15 14 13 16 22 25 26 36 39 46 57 44 335 298 304 320 335 315 297 289 277 262 260 257 257 258
243 244 246 251 259 261 262 266 270 272 274 276 283 294 301 311 318 322 325 335 341 348 352 356 0 359 358 2 357 6 18 11 360 336 320 327 319 306 305 299 309 306 295 288 282 272 264 264 265
241 244 246 251 256 259 261 263 262 268 272 273 272 276 283 292 299 303 303 305 314 325 331 332 337 340 339 341 336 329 333 339 333 321 311 311 317 320 312 306 305 306 297 294 287 277 276 275 273
241 243 246 251 255 257 261 263 261 266 267 266 267 269 271 278 285 289 289 290 294 301 309 314 320 322 323 319 317 312 308 308 305 299 294 295 301 304 307 309 303 297 293 293 286 281 289 289 283
241 243 249 253 254 257 260 260 259 261 260 259 261 263 263 268 275 281 283 283 286 288 294 298 302 305 309 311 308 305 300 297 300 294 285 285 290 293 296 302 302 295 292 291 287 289 288 288 284
239 239 241 246 250 257 262 260 261 261 260 260 260 261 265 265 267 270 272 276 278 280 284 290 290 292 295 296 296 296 295 294 296 300 289 283 285 288 291 295 296 292 289 287 288 290 287 282 281
240 239 241 247 251 252 256 262 263 260 260 263 262 262 264 268 266 263 264 267 272 275 277 283 284 284 287 287 286 286 288 287 287 295 287 282 282 282 284 285 286 287 286 286 285 286 286 281 278
240 239 239 242 249 254 260 263 261 262 263 264 265 263 261 262 263 262 264 265 267 271 275 275 279 282 281 281 277 276 280 284 285 289 284 279 279 278 278 278 281 286 283 282 281 282 286 287 283
242 241 240 243 246 250 256 261 262 266 264 264 266 264 260 259 260 262 264 264 267 268 269 273 278 281 285 282 276 274 279 284 286 284 280 278 278 277 276 276 277 280 281 281 280 279 281 283 285
244 244 243 243 247 250 252 257 262 267 266 265 262 261 257 257 257 259 261 262 264 267 269 271 275 279 282 279 278 276 275 278 282 281 275 274 276 275 276 277 278 280 281 280 278 278 279 281 282